Temp
13 13 15 14 14 14 14 14 12 12 14 15 15 14 13 13 13 13 13 14 14 13 13 13 13 13 13 13 13 13 12 12 12 12 12 12 12 11 11 11 11 11 11
14 14 14 14 14 14 14 14 14 13 14 14 14 14 14 13 13 13 13 13 14 13 13 13 13 13 13 13 13 13 12 12 13 12 12 12 11 11 11 11 11 10 10
14 13 14 14 13 14 14 14 14 14 13 12 14 13 13 14 13 13 13 12 13 13 13 13 13 13 13 13 13 13 12 13 13 12 12 11 11 11 11 10 10 10 10
14 14 14 14 14 14 14 14 14 13 14 14 12 13 14 13 13 13 13 12 12 13 13 13 13 13 13 13 13 13 13 13 13 13 12 11 11 11 10 10 10 10 9
14 14 14 14 13 14 13 13 13 14 14 14 15 13 14 13 13 13 13 12 13 13 13 13 13 13 13 13 13 13 13 13 14 13 12 12 11 11 10 10 10 10 9
14 14 14 14 14 14 13 13 13 13 13 14 14 14 13 14 13 13 12 13 13 13 13 13 13 13 13 13 13 13 13 13 13 13 12 12 12 11 10 10 10 9 9
14 14 14 14 14 13 13 12 13 12 12 12 12 13 13 13 14 14 13 13 13 13 13 13 13 13 14 13 13 13 13 13 13 13 12 11 11 11 10 10 9 9 9
14 14 14 14 13 12 12 12 12 13 12 12 12 12 12 13 13 13 13 13 14 14 14 14 14 14 14 13 13 13 13 13 13 12 11 11 11 10 10 9 9 8 8
14 14 14 14 13 12 12 12 11 12 12 12 12 11 11 12 13 13 13 13 14 14 13 13 14 14 14 13 13 13 13 12 12 11 11 11 11 10 9 9 9 8 8
14 14 14 13 11 11 11 12 12 12 11 11 11 11 11 12 12 12 13 13 13 13 14 14 13 13 13 13 13 13 13 13 13 11 11 10 9 9 9 9 9 8 8
13 13 13 11 11 11 11 11 11 11 11 11 10 9 10 11 11 10 11 12 12 12 12 12 13 12 13 12 12 12 12 13 13 11 11 10 10 8 8 8 8 8 7
12 12 12 11 10 11 11 11 11 11 11 10 10 10 11 11 11 11 11 11 12 12 12 12 12 12 12 11 11 11 12 11 10 10 9 9 9 7 8 8 8 7 7
12 12 12 12 12 11 11 11 11 11 11 9 10 10 11 10 11 11 11 10 10 11 12 12 12 11 11 11 12 11 11 10 10 8 8 9 8 7 7 8 7 6 6
11 11 11 11 12 11 10 11 10 10 10 9 10 10 10 11 11 11 10 10 10 10 10 11 11 12 11 11 11 10 9 9 9 8 8 8 8 7 7 6 7 6 6
11 10 11 11 11 11 11 10 10 10 9 9 9 10 10 10 10 10 10 10 10 9 10 10 10 10 11 11 10 10 10 10 9 8 8 8 8 9 8 6 6 6 5
10 10 10 10 10 10 10 10 10 10 9 9 10 9 10 10 10 10 10 10 10 10 9 9 9 10 10 10 10 10 10 9 9 8 8 8 8 7 7 7 7 7 6
9 9 9 9 9 9 9 9 9 9 9 9 9 9 9 9 10 10 9 10 9 9 9 8 8 8 9 9 9 9 9 9 8 8 8 8 8 8 7 7 7 7 5
9 9 9 9 9 9 9 9 9 9 9 9 9 9 9 9 9 9 8 8 8 8 7 7 7 7 8 8 8 8 8 8 8 8 8 7 7 7 6 6 6 6 5
7 8 8 8 9 9 9 9 8 8 8 8 8 8 8 8 8 7 7 7 6 6 6 6 6 6 7 7 7 7 8 7 7 7 7 7 6 6 5 6 6 4 4
8 8 8 8 8 8 8 8 8 8 8 8 8 8 7 7 6 6 6 6 6 5 5 5 5 5 5 5 6 6 6 7 7 6 5 6 6 5 5 5 5 5 3
7 7 7 7 7 7 7 7 7 7 7 7 6 6 6 6 6 5 4 4 3 3 3 4 4 5 5 6 6 6 5 6 6 6 5 5 5 4 5 5 5 5 4
6 6 6 6 6 7 6 6 6 6 6 6 6 6 6 5 5 4 4 2 2 2 2 2 2 3 4 4 4 5 4 4 4 5 4 4 4 5 4 4 4 5 3
6 6 5 5 5 5 6 6 5 5 5 5 4 4 4 4 3 2 2 2 2 1 1 1 1 2 2 2 3 3 3 3 4 4 4 4 4 4 4 3 3 3 2
5 5 5 5 4 4 3 3 3 3 3 2 2 2 2 2 1 1 0 -1 -1 -1 0 -0 0 1 1 1 2 2 2 3 2 3 3 3 4 4 3 3 2 1 1
5 4 4 4 3 3 2 2 2 1 1 1 0 -0 -0 -2 -2 -1 -2 -2 -1 -0 -1 -1 -1 -0 0 0 1 1 1 2 2 2 2 1 1 2 2 1 1 0 0
4 3 3 2 2 1 1 1 1 -0 -1 -0 -0 -0 0 -0 -0 -1 -3 -3 -3 -2 -3 -2 -1 -1 -1 -1 -0 1 1 1 1 1 1 1 0 1 -0 0 0 -0 -0
Height
1531 1533 1534 1535 1538 1540 1541 1543 1546 1547 1547 1548 1549 1550 1551 1552 1552 1552 1552 1551 1551 1550 1550 1550 1550 1549 1549 1549 1548 1546 1545 1543 1542 1541 1540 1539 1538 1536 1534 1532 1530 1528 1527
1526 1528 1531 1533 1533 1535 1537 1539 1541 1543 1544 1545 1546 1547 1548 1549 1549 1549 1549 1549 1549 1548 1548 1548 1548 1548 1547 1547 1546 1546 1544 1542 1540 1539 1537 1537 1535 1534 1532 1530 1529 1527 1525
1522 1524 1526 1529 1529 1532 1534 1535 1537 1538 1540 1541 1543 1544 1545 1545 1545 1546 1546 1546 1546 1546 1546 1546 1546 1546 1546 1545 1544 1543 1541 1539 1538 1537 1535 1534 1533 1531 1530 1528 1527 1525 1524
1518 1520 1522 1524 1526 1528 1529 1531 1532 1534 1535 1537 1539 1540 1540 1541 1542 1543 1542 1543 1543 1543 1543 1543 1543 1542 1542 1542 1541 1540 1538 1537 1535 1534 1533 1532 1531 1529 1528 1526 1524 1523 1522
1514 1516 1518 1519 1521 1523 1525 1526 1527 1528 1529 1531 1532 1535 1536 1537 1538 1539 1538 1538 1538 1539 1539 1539 1539 1538 1537 1537 1537 1535 1534 1532 1531 1530 1529 1528 1527 1526 1524 1523 1521 1519 1517
1510 1511 1512 1513 1515 1516 1518 1518 1521 1523 1524 1525 1527 1528 1529 1530 1533 1533 1534 1533 1534 1534 1535 1535 1535 1534 1533 1533 1533 1532 1530 1528 1527 1527 1527 1525 1524 1522 1521 1519 1516 1515 1514
1504 1506 1507 1508 1508 1509 1510 1513 1515 1517 1518 1521 1522 1522 1522 1524 1527 1529 1529 1528 1529 1530 1530 1530 1530 1530 1528 1528 1528 1528 1527 1525 1523 1522 1523 1522 1521 1519 1517 1516 1513 1511 1511
1498 1500 1500 1501 1502 1503 1504 1506 1508 1509 1511 1514 1516 1519 1518 1521 1522 1524 1524 1524 1524 1525 1524 1525 1524 1524 1524 1523 1523 1523 1523 1521 1520 1519 1519 1518 1517 1516 1513 1512 1511 1508 1507
1492 1493 1494 1495 1496 1496 1498 1499 1502 1503 1504 1505 1509 1513 1516 1513 1516 1517 1517 1518 1518 1519 1518 1520 1519 1517 1518 1519 1518 1518 1517 1517 1515 1514 1515 1513 1511 1510 1510 1508 1507 1505 1504
1486 1487 1488 1488 1488 1490 1491 1491 1495 1495 1498 1498 1502 1504 1507 1508 1507 1509 1509 1513 1517 1516 1515 1515 1516 1513 1514 1514 1513 1512 1511 1509 1507 1508 1508 1507 1506 1505 1504 1503 1502 1501 1499
1480 1481 1481 1482 1483 1483 1485 1487 1489 1490 1491 1492 1495 1498 1502 1503 1505 1505 1507 1513 1514 1511 1510 1511 1510 1509 1509 1509 1507 1505 1502 1500 1497 1498 1500 1499 1499 1499 1499 1498 1497 1495 1493
1475 1476 1476 1477 1478 1478 1479 1482 1483 1485 1487 1489 1492 1496 1497 1499 1500 1502 1505 1507 1506 1504 1504 1503 1503 1503 1503 1502 1500 1498 1496 1493 1491 1491 1491 1492 1493 1492 1492 1492 1490 1488 1487
1469 1471 1472 1473 1473 1473 1474 1476 1477 1480 1482 1485 1489 1492 1494 1495 1498 1499 1500 1500 1499 1497 1495 1494 1494 1494 1494 1493 1490 1488 1485 1483 1482 1482 1483 1484 1485 1485 1484 1486 1484 1483 1482
1464 1466 1466 1467 1468 1469 1469 1469 1471 1474 1478 1481 1485 1487 1489 1492 1492 1492 1494 1495 1492 1490 1488 1484 1485 1484 1484 1482 1479 1476 1475 1476 1475 1474 1477 1477 1477 1476 1476 1478 1478 1477 1477
1459 1461 1460 1462 1463 1464 1464 1466 1467 1471 1473 1478 1480 1482 1483 1484 1485 1487 1487 1488 1487 1482 1478 1476 1476 1476 1474 1471 1469 1468 1467 1466 1466 1468 1469 1471 1469 1467 1467 1470 1470 1470 1470
1453 1455 1454 1456 1457 1460 1461 1463 1465 1468 1470 1474 1476 1477 1478 1479 1479 1481 1481 1480 1478 1474 1467 1469 1467 1466 1465 1462 1462 1460 1459 1459 1460 1460 1461 1461 1461 1460 1460 1461 1461 1460 1460
1447 1451 1454 1454 1455 1457 1459 1460 1463 1465 1467 1469 1471 1472 1472 1474 1473 1473 1472 1471 1469 1468 1463 1461 1459 1459 1456 1455 1454 1452 1452 1451 1451 1451 1453 1452 1452 1452 1453 1452 1453 1453 1453
1448 1450 1452 1453 1453 1454 1457 1458 1460 1462 1462 1463 1465 1467 1465 1466 1467 1465 1464 1462 1462 1461 1458 1453 1451 1449 1448 1448 1446 1443 1444 1442 1442 1442 1442 1442 1443 1442 1443 1445 1446 1446 1445
1449 1450 1451 1452 1454 1456 1456 1457 1458 1458 1458 1458 1458 1459 1459 1460 1460 1459 1457 1456 1456 1454 1452 1446 1442 1441 1441 1440 1438 1436 1435 1434 1433 1434 1433 1433 1434 1435 1436 1437 1436 1437 1438
1451 1452 1453 1453 1454 1455 1456 1456 1457 1457 1457 1456 1456 1455 1455 1455 1455 1453 1452 1450 1448 1446 1443 1440 1435 1434 1432 1431 1431 1430 1427 1426 1425 1425 1423 1423 1424 1426 1428 1428 1428 1430 1431
1453 1453 1453 1453 1453 1453 1454 1454 1454 1454 1453 1453 1452 1451 1450 1450 1449 1448 1445 1443 1442 1439 1436 1432 1428 1426 1423 1422 1422 1422 1419 1419 1416 1415 1416 1416 1418 1416 1417 1419 1420 1422 1424
1453 1453 1453 1452 1452 1452 1451 1451 1451 1450 1449 1449 1447 1446 1445 1444 1442 1442 1440 1437 1435 1432 1429 1426 1422 1420 1418 1415 1414 1413 1412 1409 1405 1406 1405 1405 1406 1407 1410 1411 1411 1414 1417
1452 1452 1452 1452 1451 1450 1449 1449 1448 1446 1445 1445 1443 1442 1441 1438 1437 1435 1432 1429 1427 1426 1423 1420 1416 1414 1411 1411 1408 1404 1403 1400 1397 1398 1396 1395 1397 1398 1400 1403 1405 1406 1408
1451 1451 1451 1450 1449 1448 1447 1446 1445 1443 1443 1441 1439 1437 1435 1434 1432 1429 1424 1421 1420 1418 1416 1413 1410 1406 1405 1403 1401 1399 1395 1393 1389 1388 1389 1387 1387 1388 1390 1394 1397 1400 1402
1452 1451 1450 1449 1448 1446 1445 1443 1441 1440 1438 1436 1434 1432 1430 1427 1424 1422 1418 1414 1411 1408 1406 1405 1401 1398 1396 1393 1392 1389 1386 1385 1381 1380 1381 1381 1380 1380 1384 1386 1389 1393 1395
1450 1449 1447 1446 1444 1443 1441 1439 1437 1436 1435 1433 1431 1429 1426 1423 1420 1417 1413 1408 1403 1401 1399 1396 1392 1389 1387 1384 1383 1381 1379 1377 1376 1373 1373 1374 1374 1377 1378 1379 1383 1387 1391
Wind_Speed
18 19 22 21 20 20 20 17 16 16 20 20 20 18 15 14 13 12 12 13 12 11 9 9 9 7 8 7 8 10 12 14 14 12 11 10 10 10 10 11 12 13 14
21 20 19 20 21 22 24 21 21 18 22 22 21 19 18 16 16 16 15 14 15 14 12 10 9 8 9 10 10 12 15 16 15 15 13 12 11 12 12 13 14 12 13
20 18 19 19 20 20 24 23 22 22 23 21 23 21 20 19 18 16 16 16 16 17 16 14 13 13 13 13 13 16 18 17 16 16 14 14 13 13 14 15 15 15 14
19 19 21 20 21 23 24 25 24 23 27 28 21 22 22 20 20 18 19 17 17 19 19 18 17 18 18 17 16 18 19 17 17 16 15 15 16 16 16 17 16 17 15
21 22 23 23 23 28 29 30 28 26 27 28 32 25 26 25 23 20 21 20 21 22 21 20 19 19 18 17 16 18 19 18 17 18 17 17 18 18 17 18 18 18 17
23 25 26 25 27 29 31 32 33 32 29 29 34 32 27 27 26 25 22 21 21 24 23 23 23 21 20 19 19 18 19 19 19 20 20 19 19 19 19 20 20 18 18
30 28 28 27 28 31 32 33 33 35 34 34 31 33 29 27 29 30 26 24 24 25 25 24 24 23 24 21 20 19 19 20 22 21 19 19 21 21 21 22 20 18 19
33 32 30 29 29 29 32 33 34 37 36 38 36 31 20 20 21 26 22 27 27 28 27 26 26 27 26 24 23 21 19 21 22 21 24 23 22 23 23 21 20 19 20
33 33 32 32 31 32 34 35 35 36 40 43 41 27 14 17 16 15 10 18 23 28 29 27 28 27 25 18 18 20 22 24 25 23 26 25 24 24 22 22 21 22 22
29 30 33 33 31 29 31 33 31 33 36 39 41 44 35 14 9 10 19 18 20 16 19 22 24 25 26 23 24 28 33 35 38 29 28 25 23 24 23 22 24 24 26
25 26 26 26 25 26 29 32 31 27 38 39 38 32 40 29 24 18 21 31 30 27 30 31 28 26 28 31 30 39 38 35 33 35 35 28 27 26 23 23 25 23 27
21 21 23 22 25 25 29 30 27 29 30 36 37 33 31 30 27 24 26 35 37 36 33 34 33 36 34 35 40 40 39 35 36 36 34 27 27 22 24 21 25 30 28
22 20 20 21 25 23 29 30 29 31 30 31 33 32 31 31 29 29 29 33 33 37 37 37 42 39 39 42 44 45 36 38 40 41 34 30 25 23 25 25 32 30 28
23 22 20 21 23 19 27 34 30 26 29 30 30 27 29 31 29 28 30 31 32 35 39 46 43 39 38 41 38 31 34 39 41 39 33 30 27 26 26 26 32 29 31
25 25 22 20 19 14 16 18 26 26 29 24 25 28 23 23 25 26 26 30 33 36 38 33 35 35 37 35 26 26 29 29 38 33 32 30 31 31 28 28 32 31 29
21 18 19 19 14 12 11 13 15 14 20 25 24 20 21 23 26 29 32 32 30 38 35 35 36 33 29 29 28 29 31 30 32 36 35 37 35 32 28 29 30 29 29
14 9 8 11 13 13 11 12 13 15 18 20 23 27 31 33 33 33 30 29 26 27 32 34 35 34 32 29 30 33 36 34 36 39 40 39 36 33 30 31 29 30 28
10 11 7 6 9 14 15 12 16 21 24 23 27 27 19 23 25 24 24 25 29 31 35 39 38 37 35 34 32 33 35 39 42 42 43 41 38 35 31 30 29 28 27
8 8 4 4 5 4 4 7 7 9 10 11 12 15 17 19 21 22 24 26 28 30 31 33 36 36 36 35 35 37 38 40 44 44 44 43 38 35 31 30 29 26 26
9 8 7 5 4 3 4 4 6 7 9 10 12 14 16 18 20 22 24 26 27 29 31 34 36 37 36 34 34 35 38 40 44 47 46 43 40 36 33 31 30 29 27
6 4 3 1 1 2 3 5 6 8 10 12 14 15 17 20 22 24 25 26 26 27 28 31 33 35 37 36 35 36 39 38 47 48 45 42 38 36 36 34 35 31 26
4 3 2 2 3 5 7 10 11 11 12 14 15 16 18 19 20 23 24 23 24 27 28 30 30 32 33 35 37 37 38 40 44 44 49 48 41 39 39 37 37 29 26
4 4 5 5 6 7 8 9 10 12 14 15 17 18 18 19 20 21 22 23 24 24 24 27 31 33 36 35 36 39 39 39 42 43 40 48 45 45 42 40 34 29 28
6 6 6 6 7 8 8 10 11 12 12 12 14 15 16 17 16 20 22 22 23 22 25 27 30 31 34 33 34 37 39 41 40 40 39 37 47 48 46 40 33 30 27
4 4 5 6 7 8 10 11 13 13 14 15 16 16 18 17 18 23 24 27 28 28 27 28 29 31 32 30 31 31 37 37 38 38 35 37 40 37 39 35 31 29 27
5 7 8 9 10 12 13 16 16 14 14 16 17 18 19 22 24 25 27 30 32 31 30 31 31 32 33 32 30 28 31 36 36 34 33 32 34 26 20 24 25 26 26
Wind_Direction
220 221 225 221 221 230 234 230 224 225 235 239 242 245 248 250 254 258 258 259 257 255 254 256 259 270 286 294 304 303 308 303 293 293 300 297 293 298 309 315 324 331 334
227 228 227 227 225 235 240 237 237 232 239 242 246 248 252 256 256 257 261 263 259 254 254 263 251 258 273 289 292 295 301 301 287 284 283 283 285 288 297 305 314 321 323
223 225 228 228 234 235 246 247 237 241 240 239 247 252 254 257 260 259 262 264 265 255 256 259 257 261 273 283 295 298 302 299 286 283 276 275 279 284 291 299 305 309 312
228 226 234 236 241 241 244 248 242 244 243 244 247 248 255 259 261 263 263 262 262 256 260 259 263 269 273 277 284 294 299 296 285 280 270 271 277 282 288 293 297 299 302
239 244 245 245 243 246 247 246 245 243 243 241 246 250 253 263 264 266 264 261 261 258 260 262 263 265 269 268 278 290 295 287 279 275 266 264 273 279 283 288 292 293 293
250 253 251 251 247 248 246 244 246 246 244 239 243 245 250 256 266 265 265 264 261 260 260 263 264 264 265 269 276 289 291 285 275 273 263 265 272 277 281 286 288 290 289
253 255 252 250 250 247 251 249 247 244 241 237 239 241 247 255 267 266 269 266 265 261 262 263 260 263 266 265 273 284 289 285 277 274 267 268 269 277 281 282 282 284 285
253 254 254 255 252 250 249 248 242 245 245 240 232 238 251 260 262 263 262 268 269 265 261 264 261 263 267 260 268 284 289 282 277 272 263 271 274 275 277 277 279 277 281
247 252 257 256 253 253 248 248 250 243 247 240 245 222 215 226 240 256 277 279 275 265 260 263 261 266 267 275 287 302 309 285 276 267 265 266 270 275 275 277 273 273 276
246 251 257 257 255 249 244 250 247 242 250 246 233 222 226 219 221 269 259 287 272 271 277 277 280 288 286 277 281 290 299 299 294 262 260 260 267 273 272 270 267 269 270
245 251 253 252 247 247 240 248 253 251 240 230 226 225 229 237 245 249 257 263 268 277 288 286 277 280 279 279 283 291 293 296 276 253 255 253 266 260 262 262 265 258 262
243 250 250 254 249 251 246 251 250 250 246 240 233 238 234 237 241 246 256 266 274 279 280 282 278 280 281 280 286 291 288 278 261 251 248 258 259 257 260 263 252 254 264
239 242 253 256 255 250 251 243 241 242 240 233 235 242 241 244 246 255 262 267 273 279 275 279 281 276 281 283 283 288 276 268 259 250 245 254 254 256 252 251 249 260 264
247 252 260 255 251 255 250 248 229 228 231 230 238 241 248 250 257 262 258 264 275 273 281 282 276 278 285 287 289 285 269 265 264 246 254 253 250 249 256 251 248 261 269
248 261 257 249 252 233 248 241 235 249 228 236 242 249 254 254 256 256 260 269 275 273 275 264 271 283 285 287 286 280 270 265 263 247 249 250 248 253 256 246 252 266 275
238 242 214 215 211 208 215 219 216 224 222 228 236 252 255 259 261 269 271 274 276 277 264 271 278 283 287 285 281 278 270 266 257 247 250 250 247 250 253 252 260 267 270
165 166 198 213 202 204 204 205 208 225 241 245 247 255 260 263 263 267 272 271 270 272 280 283 286 288 288 284 281 281 270 262 256 251 251 247 248 253 252 254 259 266 267
130 152 126 125 176 207 208 213 224 235 232 229 250 254 249 263 266 264 266 275 278 280 282 285 285 287 288 286 284 279 274 262 253 253 247 242 244 246 250 256 261 269 268
103 101 114 122 157 170 188 208 230 241 253 253 258 266 271 276 277 278 279 279 277 276 276 282 287 291 290 289 284 280 277 268 256 250 245 243 243 246 249 252 258 262 263
122 122 126 126 139 162 191 216 238 255 265 270 273 275 280 285 289 291 290 290 290 290 288 286 287 288 289 290 289 283 279 273 256 248 240 238 241 243 245 249 257 261 262
124 116 107 94 11 307 298 307 303 300 296 294 294 296 295 294 294 293 292 291 290 290 291 291 289 289 287 286 284 286 283 281 268 251 243 240 240 238 243 247 251 261 262
95 79 60 18 332 319 324 330 331 322 317 312 310 307 304 302 301 298 292 287 287 288 286 286 286 287 286 285 289 283 280 274 256 261 240 240 235 240 246 245 247 257 261
53 40 32 17 360 343 333 330 329 324 323 320 317 314 312 313 312 308 307 306 301 291 283 286 286 285 284 284 290 285 283 275 268 262 253 241 238 238 241 242 243 249 252
43 34 19 3 353 347 348 344 338 334 330 329 328 326 326 323 316 312 310 308 302 299 296 288 283 288 286 288 279 278 285 283 271 262 253 241 240 240 239 239 238 245 245
26 15 12 8 358 347 347 346 346 345 342 339 338 338 336 333 322 324 322 314 308 305 300 298 293 288 285 285 281 280 277 276 265 263 255 254 245 241 239 234 235 236 235
14 11 9 2 358 354 351 349 354 348 339 339 339 339 334 329 324 324 322 319 314 312 309 304 294 295 293 299 291 279 279 276 263 264 257 240 235 231 224 234 235 231 229